Orbital Elements at Epoch 2459000.5 (2020-May-31.0) TDB
Reference: JPL 16 (heliocentric ecliptic J2000)
Element | Value | Uncertainty (1-sigma) | Units |
e | .1822825912528728 | 5.4704e-08 | |
a | 2.600549327058621 | 1.7423e-08 | au |
q | 2.126514457041461 | 1.431e-07 | au |
i | 4.561376287979924 | 5.2776e-06 | deg |
node | 69.91902121285341 | 8.5193e-05 | deg |
peri | 204.0814040867315 | 8.6765e-05 | deg |
M | 260.8042273457982 | 1.9749e-05 | deg |
tp | 2459422.572186778417 (2021-Jul-27.07218678) | 8.6103e-05 | TDB |
period | 1531.778856846214 4.19 | 1.5394e-05 4.215e-08 | d yr |
n | .235020870271839 | 2.3619e-09 | deg/d |
Q | 3.07458419707578 | 2.0599e-08 | au |
|
| | Orbit Determination Parameters
Additional Information
|